User: anonymous
Location: Pine Mountain Observatory
(43.7910°N, 120.9377°W)
Time: 21:13:46
(UTC-07:00)
Language:

APEX - Orbit

View from above orbital plane
View from above orbital plane
View from above satellite
View from above satellite

Ground track
Ground track

The orbit data is extracted from the following two-line orbital elements,

1 23191U 94046A   14204.80405818  .00003622  00000-0  14921-3 0  9526
2 23191 069.9237 104.1942 0746756 249.7384 166.0307 14.03909712965679
Epoch (UTC): 23 July 2014 19:17:50
Eccentricity: 0.0746756
inclination: 69.9237°
perigee height: 338 km
apogee height: 1422 km
right ascension of ascending node: 104.1942°
argument of perigee: 249.7384°
revolutions per day: 14.03909712
mean anomaly at epoch: 166.0307°
orbit number at epoch: 96567

The dashed part of the orbit path shows where the satellite is in the earth's shadow,  

DLR